Year,Month,Day,Hour,Minute,Value (Times are PST for temperature in C)
2015,10,01,00,00,8.90
2015,10,01,00,01,8.80
2015,10,01,00,02,8.90
2015,10,01,00,03,8.90
2015,10,01,00,04,8.90
2015,10,01,00,05,8.90
2015,10,01,00,06,8.90
2015,10,01,00,07,8.90
2015,10,01,00,08,8.90
2015,10,01,00,09,8.90
2015,10,01,00,10,8.90
2015,10,01,00,11,8.90
2015,10,01,00,12,8.90
2015,10,01,00,13,8.90
2015,10,01,00,14,8.90
2015,10,01,00,15,8.90
2015,10,01,00,16,9.00
2015,10,01,00,17,9.00
2015,10,01,00,18,9.10
2015,10,01,00,19,9.10
2015,10,01,00,20,9.10
2015,10,01,00,21,9.20
2015,10,01,00,22,9.20
2015,10,01,00,23,9.30
2015,10,01,00,24,9.30
2015,10,01,00,25,9.40
2015,10,01,00,26,9.40
2015,10,01,00,27,9.50
2015,10,01,00,28,9.60
2015,10,01,00,29,9.60
2015,10,01,00,30,9.70
2015,10,01,00,31,9.80
2015,10,01,00,32,9.80
2015,10,01,00,33,9.90
2015,10,01,00,34,9.90
2015,10,01,00,35,9.90
2015,10,01,00,36,9.90
2015,10,01,00,37,9.90
2015,10,01,00,38,9.90
2015,10,01,00,39,9.90
2015,10,01,00,40,9.90
2015,10,01,00,41,9.90
2015,10,01,00,42,9.90
2015,10,01,00,43,9.90
2015,10,01,00,44,9.90
2015,10,01,00,45,9.90
2015,10,01,00,46,9.90
2015,10,01,00,47,9.90
2015,10,01,00,48,9.90
2015,10,01,00,49,9.90
2015,10,01,00,50,9.90
2015,10,01,00,51,9.90
2015,10,01,00,52,9.90
2015,10,01,00,53,9.90
2015,10,01,00,54,9.90
2015,10,01,00,55,9.80
2015,10,01,00,56,9.80
2015,10,01,00,57,9.80
2015,10,01,00,58,9.80
2015,10,01,00,59,9.80
2015,10,01,01,00,9.80
2015,10,01,01,01,9.80
2015,10,01,01,02,9.70
2015,10,01,01,03,9.70
2015,10,01,01,04,9.70
2015,10,01,01,05,9.70
2015,10,01,01,06,9.70
2015,10,01,01,07,9.70
2015,10,01,01,08,9.70
2015,10,01,01,09,9.70
2015,10,01,01,10,9.70
2015,10,01,01,11,9.70
2015,10,01,01,12,9.80
2015,10,01,01,13,9.80
2015,10,01,01,14,9.80
2015,10,01,01,15,9.80
2015,10,01,01,16,9.80
2015,10,01,01,17,9.80
2015,10,01,01,18,9.80
2015,10,01,01,19,9.80
2015,10,01,01,20,9.70
2015,10,01,01,21,9.70
2015,10,01,01,22,9.70
2015,10,01,01,23,9.70
2015,10,01,01,24,9.70
2015,10,01,01,25,9.70
2015,10,01,01,26,9.70
2015,10,01,01,27,9.70
2015,10,01,01,28,9.70
2015,10,01,01,29,9.70
2015,10,01,01,30,9.70
2015,10,01,01,31,9.70
2015,10,01,01,32,9.70
2015,10,01,01,33,9.70
2015,10,01,01,34,9.70
2015,10,01,01,35,9.70
2015,10,01,01,36,9.70
2015,10,01,01,37,9.60
2015,10,01,01,38,9.60
2015,10,01,01,39,9.60
2015,10,01,01,40,9.60
2015,10,01,01,41,9.60
2015,10,01,01,42,9.60
2015,10,01,01,43,9.60
2015,10,01,01,44,9.60
2015,10,01,01,45,9.60
2015,10,01,01,46,9.60
2015,10,01,01,47,9.70
2015,10,01,01,48,9.70
2015,10,01,01,49,9.70
2015,10,01,01,50,9.70
2015,10,01,01,51,9.70
2015,10,01,01,52,9.80
2015,10,01,01,53,9.80
2015,10,01,01,54,9.80
2015,10,01,01,55,9.80
2015,10,01,01,56,9.80
2015,10,01,01,57,9.80
2015,10,01,01,58,9.80
2015,10,01,01,59,9.80
2015,10,01,02,00,9.80
2015,10,01,02,01,9.70
2015,10,01,02,02,9.70
2015,10,01,02,03,9.70
2015,10,01,02,04,9.70
2015,10,01,02,05,9.70
2015,10,01,02,06,9.70
2015,10,01,02,07,9.70
2015,10,01,02,08,9.70
2015,10,01,02,09,9.70
2015,10,01,02,10,9.70
2015,10,01,02,11,9.70
2015,10,01,02,12,9.70
2015,10,01,02,13,9.70
2015,10,01,02,14,9.60
2015,10,01,02,15,9.60
2015,10,01,02,16,9.60
2015,10,01,02,17,9.60
2015,10,01,02,18,9.60
2015,10,01,02,19,9.60
2015,10,01,02,20,9.60
2015,10,01,02,21,9.50
2015,10,01,02,22,9.50
2015,10,01,02,23,9.50
2015,10,01,02,24,9.50
2015,10,01,02,25,9.50
2015,10,01,02,26,9.40
2015,10,01,02,27,9.40
2015,10,01,02,28,9.40
2015,10,01,02,29,9.40
2015,10,01,02,30,9.40
2015,10,01,02,31,9.40
2015,10,01,02,32,9.40
2015,10,01,02,33,9.30
2015,10,01,02,34,9.30
2015,10,01,02,35,9.30
2015,10,01,02,36,9.30
2015,10,01,02,37,9.30
2015,10,01,02,38,9.20
2015,10,01,02,39,9.20
2015,10,01,02,40,9.20
2015,10,01,02,41,9.20
2015,10,01,02,42,9.10
2015,10,01,02,43,9.10
2015,10,01,02,44,9.10
2015,10,01,02,45,9.10
2015,10,01,02,46,9.00
2015,10,01,02,47,9.00
2015,10,01,02,48,9.00
2015,10,01,02,49,9.00
2015,10,01,02,50,8.90
2015,10,01,02,51,8.90
2015,10,01,02,52,8.90
2015,10,01,02,53,8.90
2015,10,01,02,54,8.90
2015,10,01,02,55,8.80
2015,10,01,02,56,8.80
2015,10,01,02,57,8.80
2015,10,01,02,58,8.80
2015,10,01,02,59,8.80
2015,10,01,03,00,8.70
2015,10,01,03,01,8.70
2015,10,01,03,02,8.70
2015,10,01,03,03,8.70
2015,10,01,03,04,8.70
2015,10,01,03,05,8.70
2015,10,01,03,06,8.60
2015,10,01,03,07,8.60
2015,10,01,03,08,8.60
2015,10,01,03,09,8.60
2015,10,01,03,10,8.60
2015,10,01,03,11,8.60
2015,10,01,03,12,8.60
2015,10,01,03,13,8.60
2015,10,01,03,14,8.50
2015,10,01,03,15,8.50
2015,10,01,03,16,8.50
2015,10,01,03,17,8.40
2015,10,01,03,18,8.40
2015,10,01,03,19,8.40
2015,10,01,03,20,8.40
2015,10,01,03,21,8.40
2015,10,01,03,22,8.40
2015,10,01,03,23,8.30
2015,10,01,03,24,8.30
2015,10,01,03,25,8.30
2015,10,01,03,26,8.30
2015,10,01,03,27,8.30
2015,10,01,03,28,8.30
2015,10,01,03,29,8.30
2015,10,01,03,30,8.20
2015,10,01,03,31,8.20
2015,10,01,03,32,8.20
2015,10,01,03,33,8.20
2015,10,01,03,34,8.20
2015,10,01,03,35,8.10
2015,10,01,03,36,8.10
2015,10,01,03,37,8.10
2015,10,01,03,38,8.10
2015,10,01,03,39,8.10
2015,10,01,03,40,8.00
2015,10,01,03,41,8.00
2015,10,01,03,42,8.00
2015,10,01,03,43,7.90
2015,10,01,03,44,7.90
2015,10,01,03,45,7.90
2015,10,01,03,46,7.80
2015,10,01,03,47,7.80
2015,10,01,03,48,7.80
2015,10,01,03,49,7.80
2015,10,01,03,50,7.80
2015,10,01,03,51,7.80
2015,10,01,03,52,7.80
2015,10,01,03,53,7.70
2015,10,01,03,54,7.70
2015,10,01,03,55,7.70
2015,10,01,03,56,7.70
2015,10,01,03,57,7.70
2015,10,01,03,58,7.70
2015,10,01,03,59,7.70
2015,10,01,04,00,7.60
2015,10,01,04,01,7.60
2015,10,01,04,02,7.60
2015,10,01,04,03,7.60
2015,10,01,04,04,7.60
2015,10,01,04,05,7.60
2015,10,01,04,06,7.50
2015,10,01,04,07,7.50
2015,10,01,04,08,7.50
2015,10,01,04,09,7.50
2015,10,01,04,10,7.50
2015,10,01,04,11,7.50
2015,10,01,04,12,7.50
2015,10,01,04,13,7.50
2015,10,01,04,14,7.50
2015,10,01,04,15,7.40
2015,10,01,04,16,7.40
2015,10,01,04,17,7.40
2015,10,01,04,18,7.40
2015,10,01,04,19,7.40
2015,10,01,04,20,7.40
2015,10,01,04,21,7.40
2015,10,01,04,22,7.40
2015,10,01,04,23,7.40
2015,10,01,04,24,7.40
2015,10,01,04,25,7.40
2015,10,01,04,26,7.30
2015,10,01,04,27,7.30
2015,10,01,04,28,7.30
2015,10,01,04,29,7.30
2015,10,01,04,30,7.30
2015,10,01,04,31,7.30
2015,10,01,04,32,7.30
2015,10,01,04,33,7.30
2015,10,01,04,34,7.30
2015,10,01,04,35,7.30
2015,10,01,04,36,7.30
2015,10,01,04,37,7.30
2015,10,01,04,38,7.30
2015,10,01,04,39,7.30
2015,10,01,04,40,7.30
2015,10,01,04,41,7.30
2015,10,01,04,42,7.30
2015,10,01,04,43,7.30
2015,10,01,04,44,7.30
2015,10,01,04,45,7.30
2015,10,01,04,46,7.30
2015,10,01,04,47,7.30
2015,10,01,04,48,7.30
2015,10,01,04,49,7.30
2015,10,01,04,50,7.30
2015,10,01,04,51,7.30
2015,10,01,04,52,7.30
2015,10,01,04,53,7.30
2015,10,01,04,54,7.30
2015,10,01,04,55,7.30
2015,10,01,04,56,7.30
2015,10,01,04,57,7.30
2015,10,01,04,58,7.30
2015,10,01,04,59,7.30
2015,10,01,05,00,7.30
2015,10,01,05,01,7.30
2015,10,01,05,02,7.30
2015,10,01,05,03,7.30
2015,10,01,05,04,7.20
2015,10,01,05,05,7.20
2015,10,01,05,06,7.20
2015,10,01,05,07,7.20
2015,10,01,05,08,7.10
2015,10,01,05,09,7.10
2015,10,01,05,10,7.10
2015,10,01,05,11,7.10
2015,10,01,05,12,7.00
2015,10,01,05,13,7.00
2015,10,01,05,14,7.00
2015,10,01,05,15,7.00
2015,10,01,05,16,7.00
2015,10,01,05,17,7.00
2015,10,01,05,18,6.90
2015,10,01,05,19,6.90
2015,10,01,05,20,6.90
2015,10,01,05,21,6.90
2015,10,01,05,22,6.90
2015,10,01,05,23,6.80
2015,10,01,05,24,6.80
2015,10,01,05,25,6.80
2015,10,01,05,26,6.80
2015,10,01,05,27,6.80
2015,10,01,05,28,6.80
2015,10,01,05,29,6.80
2015,10,01,05,30,6.70
2015,10,01,05,31,6.70
2015,10,01,05,32,6.70
2015,10,01,05,33,6.70
2015,10,01,05,34,6.70
2015,10,01,05,35,6.70
2015,10,01,05,36,6.70
2015,10,01,05,37,6.70
2015,10,01,05,38,6.70
2015,10,01,05,39,6.70
2015,10,01,05,40,6.70
2015,10,01,05,41,6.70
2015,10,01,05,42,6.70
2015,10,01,05,43,6.70
2015,10,01,05,44,6.70
2015,10,01,05,45,6.70
2015,10,01,05,46,6.70
2015,10,01,05,47,6.70
2015,10,01,05,48,6.70
2015,10,01,05,49,6.80
2015,10,01,05,50,6.80
2015,10,01,05,51,6.80
2015,10,01,05,52,6.80
2015,10,01,05,53,6.80
2015,10,01,05,54,6.80
2015,10,01,05,55,6.80
2015,10,01,05,56,6.80
2015,10,01,05,57,6.80
2015,10,01,05,58,6.80
2015,10,01,05,59,6.80
2015,10,01,06,00,6.80
2015,10,01,06,01,6.90
2015,10,01,06,02,6.90
2015,10,01,06,03,6.90
2015,10,01,06,04,6.90
2015,10,01,06,05,7.00
2015,10,01,06,06,7.00
2015,10,01,06,07,7.00
2015,10,01,06,08,7.00
2015,10,01,06,09,7.00
2015,10,01,06,10,7.00
2015,10,01,06,11,7.10
2015,10,01,06,12,7.10
2015,10,01,06,13,7.10
2015,10,01,06,14,7.10
2015,10,01,06,15,7.20
2015,10,01,06,16,7.20
2015,10,01,06,17,7.20
2015,10,01,06,18,7.30
2015,10,01,06,19,7.30
2015,10,01,06,20,7.30
2015,10,01,06,21,7.30
2015,10,01,06,22,7.30
2015,10,01,06,23,7.30
2015,10,01,06,24,7.30
2015,10,01,06,25,7.30
2015,10,01,06,26,7.30
2015,10,01,06,27,7.20
2015,10,01,06,28,7.20
2015,10,01,06,29,7.20
2015,10,01,06,30,7.20
2015,10,01,06,31,7.20
2015,10,01,06,32,7.20
2015,10,01,06,33,7.20
2015,10,01,06,34,7.20
2015,10,01,06,35,7.20
2015,10,01,06,36,7.20
2015,10,01,06,37,7.20
2015,10,01,06,38,7.20
2015,10,01,06,39,7.20
2015,10,01,06,40,7.20
2015,10,01,06,41,7.20
2015,10,01,06,42,7.20
2015,10,01,06,43,7.20
2015,10,01,06,44,7.20
2015,10,01,06,45,7.20
2015,10,01,06,46,7.20
2015,10,01,06,47,7.20
2015,10,01,06,48,7.20
2015,10,01,06,49,7.20
2015,10,01,06,50,7.20
2015,10,01,06,51,7.20
2015,10,01,06,52,7.20
2015,10,01,06,53,7.20
2015,10,01,06,54,7.20
2015,10,01,06,55,7.10
2015,10,01,06,56,7.10
2015,10,01,06,57,7.10
2015,10,01,06,58,7.10
2015,10,01,06,59,7.00
2015,10,01,07,00,7.00
2015,10,01,07,01,7.00
2015,10,01,07,02,6.90
2015,10,01,07,03,6.90
2015,10,01,07,04,6.90
2015,10,01,07,05,6.80
2015,10,01,07,06,6.80
2015,10,01,07,07,6.80
2015,10,01,07,08,6.80
2015,10,01,07,09,6.80
2015,10,01,07,10,6.80
2015,10,01,07,11,6.80
2015,10,01,07,12,6.80
2015,10,01,07,13,6.80
2015,10,01,07,14,6.70
2015,10,01,07,15,6.70
2015,10,01,07,16,6.70
2015,10,01,07,17,6.70
2015,10,01,07,18,6.70
2015,10,01,07,19,6.70
2015,10,01,07,20,6.70
2015,10,01,07,21,6.70
2015,10,01,07,22,6.70
2015,10,01,07,23,6.70
2015,10,01,07,24,6.70
2015,10,01,07,25,6.70
2015,10,01,07,26,6.70
2015,10,01,07,27,6.70
2015,10,01,07,28,6.80
2015,10,01,07,29,6.80
2015,10,01,07,30,6.80
2015,10,01,07,31,6.80
2015,10,01,07,32,6.80
2015,10,01,07,33,6.80
2015,10,01,07,34,6.80
2015,10,01,07,35,6.80
2015,10,01,07,36,6.80
2015,10,01,07,37,6.80
2015,10,01,07,38,6.80
2015,10,01,07,39,6.80
2015,10,01,07,40,6.80
2015,10,01,07,41,6.80
2015,10,01,07,42,6.80
2015,10,01,07,43,6.80
2015,10,01,07,44,6.80
2015,10,01,07,45,6.80
2015,10,01,07,46,6.80
2015,10,01,07,47,6.80
2015,10,01,07,48,6.70
2015,10,01,07,49,6.70
2015,10,01,07,50,6.70
2015,10,01,07,51,6.70
2015,10,01,07,52,6.80
2015,10,01,07,53,6.80
2015,10,01,07,54,6.80
2015,10,01,07,55,6.80
2015,10,01,07,56,6.90
2015,10,01,07,57,6.90
2015,10,01,07,58,7.00
2015,10,01,07,59,7.00
2015,10,01,08,00,7.10
2015,10,01,08,01,7.10
2015,10,01,08,02,7.10
2015,10,01,08,03,7.20
2015,10,01,08,04,7.20
2015,10,01,08,05,7.30
2015,10,01,08,06,7.30
2015,10,01,08,07,7.30
2015,10,01,08,08,7.30
2015,10,01,08,09,7.30
2015,10,01,08,10,7.30
2015,10,01,08,11,7.30
2015,10,01,08,12,7.30
2015,10,01,08,13,7.30
2015,10,01,08,14,7.30
2015,10,01,08,15,7.40
2015,10,01,08,16,7.40
2015,10,01,08,17,7.40
2015,10,01,08,18,7.40
2015,10,01,08,19,7.50
2015,10,01,08,20,7.50
2015,10,01,08,21,7.60
2015,10,01,08,22,7.60
2015,10,01,08,23,7.60
2015,10,01,08,24,7.60
2015,10,01,08,25,7.60
2015,10,01,08,26,7.70
2015,10,01,08,27,7.70
2015,10,01,08,28,7.80
2015,10,01,08,29,7.80
2015,10,01,08,30,7.80
2015,10,01,08,31,7.80
2015,10,01,08,32,7.80
2015,10,01,08,33,7.90
2015,10,01,08,34,7.90
2015,10,01,08,35,8.00
2015,10,01,08,36,8.00
2015,10,01,08,37,8.10
2015,10,01,08,38,8.10
2015,10,01,08,39,8.20
2015,10,01,08,40,8.20
2015,10,01,08,41,8.30
2015,10,01,08,42,8.40
2015,10,01,08,43,8.50
2015,10,01,08,44,8.60
2015,10,01,08,45,8.70
2015,10,01,08,46,8.80
2015,10,01,08,47,8.90
2015,10,01,08,48,9.00
2015,10,01,08,49,9.10
2015,10,01,08,50,9.20
2015,10,01,08,51,9.30
2015,10,01,08,52,9.40
2015,10,01,08,53,9.50
2015,10,01,08,54,9.60
2015,10,01,08,55,9.70
2015,10,01,08,56,9.80
2015,10,01,08,57,9.90
2015,10,01,08,58,10.00
2015,10,01,08,59,10.10
2015,10,01,09,00,10.20
2015,10,01,09,01,10.30
2015,10,01,09,02,10.40
2015,10,01,09,03,10.50
2015,10,01,09,04,10.60
2015,10,01,09,05,10.70
2015,10,01,09,06,10.70
2015,10,01,09,07,10.80
2015,10,01,09,08,10.80
2015,10,01,09,09,10.80
2015,10,01,09,10,10.90
2015,10,01,09,11,10.90
2015,10,01,09,12,10.90
2015,10,01,09,13,11.00
2015,10,01,09,14,11.10
2015,10,01,09,15,11.20
2015,10,01,09,16,11.30
2015,10,01,09,17,11.40
2015,10,01,09,18,11.40
2015,10,01,09,19,11.50
2015,10,01,09,20,11.60
2015,10,01,09,21,11.60
2015,10,01,09,22,11.70
2015,10,01,09,23,11.70
2015,10,01,09,24,11.70
2015,10,01,09,25,11.70
2015,10,01,09,26,11.80
2015,10,01,09,27,11.80
2015,10,01,09,28,11.80
2015,10,01,09,29,11.90
2015,10,01,09,30,11.90
2015,10,01,09,31,12.00
2015,10,01,09,32,12.00
2015,10,01,09,33,12.10
2015,10,01,09,34,12.10
2015,10,01,09,35,12.20
2015,10,01,09,36,12.20
2015,10,01,09,37,12.20
2015,10,01,09,38,12.30
2015,10,01,09,39,12.30
2015,10,01,09,40,12.30
2015,10,01,09,41,12.30
2015,10,01,09,42,12.30
2015,10,01,09,43,12.30
2015,10,01,09,44,12.30
2015,10,01,09,45,12.30
2015,10,01,09,46,12.30
2015,10,01,09,47,12.30
2015,10,01,09,48,12.30
2015,10,01,09,49,12.30
2015,10,01,09,50,12.40
2015,10,01,09,51,12.40
2015,10,01,09,52,12.50
2015,10,01,09,53,12.50
2015,10,01,09,54,12.60
2015,10,01,09,55,12.70
2015,10,01,09,56,12.70
2015,10,01,09,57,12.80
2015,10,01,09,58,12.80
2015,10,01,09,59,12.80
2015,10,01,10,00,12.80
2015,10,01,10,01,12.90
2015,10,01,10,02,12.90
2015,10,01,10,03,12.90
2015,10,01,10,04,13.00
2015,10,01,10,05,13.00
2015,10,01,10,06,13.00
2015,10,01,10,07,13.10
2015,10,01,10,08,13.10
2015,10,01,10,09,13.10
2015,10,01,10,10,13.10
2015,10,01,10,11,13.20
2015,10,01,10,12,13.20
2015,10,01,10,13,13.20
2015,10,01,10,14,13.30
2015,10,01,10,15,13.30
2015,10,01,10,16,13.30
2015,10,01,10,17,13.40
2015,10,01,10,18,13.40
2015,10,01,10,19,13.50
2015,10,01,10,20,13.50
2015,10,01,10,21,13.60
2015,10,01,10,22,13.60
2015,10,01,10,23,13.70
2015,10,01,10,24,13.70
2015,10,01,10,25,13.80
2015,10,01,10,26,13.90
2015,10,01,10,27,14.00
2015,10,01,10,28,14.10
2015,10,01,10,29,14.20
2015,10,01,10,30,14.30
2015,10,01,10,31,14.40
2015,10,01,10,32,14.50
2015,10,01,10,33,14.50
2015,10,01,10,34,14.60
2015,10,01,10,35,14.60
2015,10,01,10,36,14.70
2015,10,01,10,37,14.70
2015,10,01,10,38,14.80
2015,10,01,10,39,14.80
2015,10,01,10,40,14.80
2015,10,01,10,41,14.90
2015,10,01,10,42,14.90
2015,10,01,10,43,15.00
2015,10,01,10,44,15.00
2015,10,01,10,45,15.10
2015,10,01,10,46,15.20
2015,10,01,10,47,15.20
2015,10,01,10,48,15.30
2015,10,01,10,49,15.30
2015,10,01,10,50,15.30
2015,10,01,10,51,15.40
2015,10,01,10,52,15.40
2015,10,01,10,53,15.40
2015,10,01,10,54,15.50
2015,10,01,10,55,15.50
2015,10,01,10,56,15.60
2015,10,01,10,57,15.60
2015,10,01,10,58,15.60
2015,10,01,10,59,15.60
2015,10,01,11,00,15.60
2015,10,01,11,01,15.50
2015,10,01,11,02,15.50
2015,10,01,11,03,15.50
2015,10,01,11,04,15.50
2015,10,01,11,05,15.50
2015,10,01,11,06,15.40
2015,10,01,11,07,15.40
2015,10,01,11,08,15.40
2015,10,01,11,09,15.40
2015,10,01,11,10,15.40
2015,10,01,11,11,15.40
2015,10,01,11,12,15.40
2015,10,01,11,13,15.40
2015,10,01,11,14,15.40
2015,10,01,11,15,15.50
2015,10,01,11,16,15.50
2015,10,01,11,17,15.60
2015,10,01,11,18,15.60
2015,10,01,11,19,15.60
2015,10,01,11,20,15.60
2015,10,01,11,21,15.60
2015,10,01,11,22,15.60
2015,10,01,11,23,15.60
2015,10,01,11,24,15.60
2015,10,01,11,25,15.60
2015,10,01,11,26,15.70
2015,10,01,11,27,15.70
2015,10,01,11,28,15.60
2015,10,01,11,29,15.60
2015,10,01,11,30,15.60
2015,10,01,11,31,15.60
2015,10,01,11,32,15.50
2015,10,01,11,33,15.50
2015,10,01,11,34,15.50
2015,10,01,11,35,15.60
2015,10,01,11,36,15.60
2015,10,01,11,37,15.60
2015,10,01,11,38,15.70
2015,10,01,11,39,15.70
2015,10,01,11,40,15.80
2015,10,01,11,41,15.80
2015,10,01,11,42,15.90
2015,10,01,11,43,16.00
2015,10,01,11,44,16.00
2015,10,01,11,45,16.10
2015,10,01,11,46,16.10
2015,10,01,11,47,16.10
2015,10,01,11,48,16.10
2015,10,01,11,49,16.10
2015,10,01,11,50,16.10
2015,10,01,11,51,16.10
2015,10,01,11,52,16.00
2015,10,01,11,53,16.00
2015,10,01,11,54,16.00
2015,10,01,11,55,16.00
2015,10,01,11,56,16.00
2015,10,01,11,57,16.10
2015,10,01,11,58,16.10
2015,10,01,11,59,16.10
2015,10,01,12,00,16.00
2015,10,01,12,01,16.00
2015,10,01,12,02,15.90
2015,10,01,12,03,15.90
2015,10,01,12,04,16.00
2015,10,01,12,05,16.00
2015,10,01,12,06,16.10
2015,10,01,12,07,16.10
2015,10,01,12,08,16.10
2015,10,01,12,09,16.10
2015,10,01,12,10,16.20
2015,10,01,12,11,16.20
2015,10,01,12,12,16.30
2015,10,01,12,13,16.30
2015,10,01,12,14,16.30
2015,10,01,12,15,16.30
2015,10,01,12,16,16.30
2015,10,01,12,17,16.30
2015,10,01,12,18,16.30
2015,10,01,12,19,16.30
2015,10,01,12,20,16.40
2015,10,01,12,21,16.40
2015,10,01,12,22,16.40
2015,10,01,12,23,16.40
2015,10,01,12,24,16.60
2015,10,01,12,25,16.70
2015,10,01,12,26,16.80
2015,10,01,12,27,17.00
2015,10,01,12,28,17.10
2015,10,01,12,29,17.20
2015,10,01,12,30,17.30
2015,10,01,12,31,17.40
2015,10,01,12,32,17.50
2015,10,01,12,33,17.60
2015,10,01,12,34,17.60
2015,10,01,12,35,17.70
2015,10,01,12,36,17.70
2015,10,01,12,37,17.70
2015,10,01,12,38,17.80
2015,10,01,12,39,17.80
2015,10,01,12,40,17.80
2015,10,01,12,41,17.80
2015,10,01,12,42,17.70
2015,10,01,12,43,17.70
2015,10,01,12,44,17.60
2015,10,01,12,45,17.60
2015,10,01,12,46,17.60
2015,10,01,12,47,17.60
2015,10,01,12,48,17.70
2015,10,01,12,49,17.70
2015,10,01,12,50,17.70
2015,10,01,12,51,17.70
2015,10,01,12,52,17.70
2015,10,01,12,53,17.70
2015,10,01,12,54,17.70
2015,10,01,12,55,17.60
2015,10,01,12,56,17.60
2015,10,01,12,57,17.60
2015,10,01,12,58,17.50
2015,10,01,12,59,17.50
2015,10,01,13,00,17.40
2015,10,01,13,01,17.40
2015,10,01,13,02,17.40
2015,10,01,13,03,17.50
2015,10,01,13,04,17.50
2015,10,01,13,05,17.60
2015,10,01,13,06,17.70
2015,10,01,13,07,17.70
2015,10,01,13,08,17.80
2015,10,01,13,09,17.80
2015,10,01,13,10,17.90
2015,10,01,13,11,17.90
2015,10,01,13,12,17.90
2015,10,01,13,13,18.00
2015,10,01,13,14,18.00
2015,10,01,13,15,18.10
2015,10,01,13,16,18.10
2015,10,01,13,17,18.10
2015,10,01,13,18,18.20
2015,10,01,13,19,18.30
2015,10,01,13,20,18.40
2015,10,01,13,21,18.40
2015,10,01,13,22,18.50
2015,10,01,13,23,18.50
2015,10,01,13,24,18.60
2015,10,01,13,25,18.60
2015,10,01,13,26,18.70
2015,10,01,13,27,18.70
2015,10,01,13,28,18.70
2015,10,01,13,29,18.80
2015,10,01,13,30,18.80
2015,10,01,13,31,18.80
2015,10,01,13,32,18.80
2015,10,01,13,33,18.80
2015,10,01,13,34,18.80
2015,10,01,13,35,18.70
2015,10,01,13,36,18.70
2015,10,01,13,37,18.70
2015,10,01,13,38,18.70
2015,10,01,13,39,18.70
2015,10,01,13,40,18.70
2015,10,01,13,41,18.80
2015,10,01,13,42,18.80
2015,10,01,13,43,18.80
2015,10,01,13,44,18.80
2015,10,01,13,45,18.90
2015,10,01,13,46,18.90
2015,10,01,13,47,19.00
2015,10,01,13,48,19.10
2015,10,01,13,49,19.20
2015,10,01,13,50,19.30
2015,10,01,13,51,19.30
2015,10,01,13,52,19.40
2015,10,01,13,53,19.40
2015,10,01,13,54,19.40
2015,10,01,13,55,19.40
2015,10,01,13,56,19.40
2015,10,01,13,57,19.40
2015,10,01,13,58,19.50
2015,10,01,13,59,19.50
2015,10,01,14,00,19.50
2015,10,01,14,01,19.40
2015,10,01,14,02,19.30
2015,10,01,14,03,19.20
2015,10,01,14,04,19.10
2015,10,01,14,05,19.00
2015,10,01,14,06,18.90
2015,10,01,14,07,18.90
2015,10,01,14,08,18.80
2015,10,01,14,09,18.80
2015,10,01,14,10,18.80
2015,10,01,14,11,18.80
2015,10,01,14,12,18.80
2015,10,01,14,13,18.80
2015,10,01,14,14,18.80
2015,10,01,14,15,18.80
2015,10,01,14,16,18.90
2015,10,01,14,17,18.90
2015,10,01,14,18,18.90
2015,10,01,14,19,18.90
2015,10,01,14,20,19.00
2015,10,01,14,21,19.10
2015,10,01,14,22,19.10
2015,10,01,14,23,19.10
2015,10,01,14,24,19.20
2015,10,01,14,25,19.20
2015,10,01,14,26,19.30
2015,10,01,14,27,19.30
2015,10,01,14,28,19.30
2015,10,01,14,29,19.30
2015,10,01,14,30,19.20
2015,10,01,14,31,19.20
2015,10,01,14,32,19.10
2015,10,01,14,33,19.10
2015,10,01,14,34,19.10
2015,10,01,14,35,19.10
2015,10,01,14,36,19.10
2015,10,01,14,37,19.00
2015,10,01,14,38,19.00
2015,10,01,14,39,19.00
2015,10,01,14,40,19.00
2015,10,01,14,41,19.10
2015,10,01,14,42,19.10
2015,10,01,14,43,19.10
2015,10,01,14,44,19.20
2015,10,01,14,45,19.20
2015,10,01,14,46,19.30
2015,10,01,14,47,19.40
2015,10,01,14,48,19.40
2015,10,01,14,49,19.40
2015,10,01,14,50,19.50
2015,10,01,14,51,19.60
2015,10,01,14,52,19.70
2015,10,01,14,53,19.80
2015,10,01,14,54,19.80
2015,10,01,14,55,19.90
2015,10,01,14,56,20.00
2015,10,01,14,57,20.10
2015,10,01,14,58,20.10
2015,10,01,14,59,20.20
2015,10,01,15,00,20.30
2015,10,01,15,01,20.40
2015,10,01,15,02,20.50
2015,10,01,15,03,20.50
2015,10,01,15,04,20.60
2015,10,01,15,05,20.60
2015,10,01,15,06,20.70
2015,10,01,15,07,20.80
2015,10,01,15,08,20.80
2015,10,01,15,09,20.90
2015,10,01,15,10,20.90
2015,10,01,15,11,20.90
2015,10,01,15,12,20.90
2015,10,01,15,13,20.80
2015,10,01,15,14,20.80
2015,10,01,15,15,20.80
2015,10,01,15,16,20.70
2015,10,01,15,17,20.70
2015,10,01,15,18,20.70
2015,10,01,15,19,20.70
2015,10,01,15,20,20.60
2015,10,01,15,21,20.60
2015,10,01,15,22,20.50
2015,10,01,15,23,20.50
2015,10,01,15,24,20.40
2015,10,01,15,25,20.30
2015,10,01,15,26,20.20
2015,10,01,15,27,20.20
2015,10,01,15,28,20.20
2015,10,01,15,29,20.10
2015,10,01,15,30,20.10
2015,10,01,15,31,20.10
2015,10,01,15,32,20.10
2015,10,01,15,33,20.10
2015,10,01,15,34,20.10
2015,10,01,15,35,20.10
2015,10,01,15,36,20.10
2015,10,01,15,37,20.10
2015,10,01,15,38,20.20
2015,10,01,15,39,20.20
2015,10,01,15,40,20.20
2015,10,01,15,41,20.20
2015,10,01,15,42,20.20
2015,10,01,15,43,20.20
2015,10,01,15,44,20.20
2015,10,01,15,45,20.20
2015,10,01,15,46,20.20
2015,10,01,15,47,20.20
2015,10,01,15,48,20.20
2015,10,01,15,49,20.20
2015,10,01,15,50,20.20
2015,10,01,15,51,20.20
2015,10,01,15,52,20.30
2015,10,01,15,53,20.30
2015,10,01,15,54,20.40
2015,10,01,15,55,20.50
2015,10,01,15,56,20.50
2015,10,01,15,57,20.60
2015,10,01,15,58,20.70
2015,10,01,15,59,20.80
2015,10,01,16,00,20.80
2015,10,01,16,01,20.80
2015,10,01,16,02,20.70
2015,10,01,16,03,20.60
2015,10,01,16,04,20.50
2015,10,01,16,05,20.40
2015,10,01,16,06,20.40
2015,10,01,16,07,20.30
2015,10,01,16,08,20.30
2015,10,01,16,09,20.40
2015,10,01,16,10,20.40
2015,10,01,16,11,20.40
2015,10,01,16,12,20.50
2015,10,01,16,13,20.50
2015,10,01,16,14,20.60
2015,10,01,16,15,20.60
2015,10,01,16,16,20.70
2015,10,01,16,17,20.70
2015,10,01,16,18,20.80
2015,10,01,16,19,20.80
2015,10,01,16,20,20.80
2015,10,01,16,21,20.80
2015,10,01,16,22,20.80
2015,10,01,16,23,20.80
2015,10,01,16,24,20.80
2015,10,01,16,25,20.90
2015,10,01,16,26,20.90
2015,10,01,16,27,20.80
2015,10,01,16,28,20.80
2015,10,01,16,29,20.70
2015,10,01,16,30,20.70
2015,10,01,16,31,20.60
2015,10,01,16,32,20.60
2015,10,01,16,33,20.60
2015,10,01,16,34,20.50
2015,10,01,16,35,20.50
2015,10,01,16,36,20.40
2015,10,01,16,37,20.40
2015,10,01,16,38,20.40
2015,10,01,16,39,20.40
2015,10,01,16,40,20.30
2015,10,01,16,41,20.20
2015,10,01,16,42,20.20
2015,10,01,16,43,20.10
2015,10,01,16,44,20.10
2015,10,01,16,45,20.10
2015,10,01,16,46,20.10
2015,10,01,16,47,20.10
2015,10,01,16,48,20.10
2015,10,01,16,49,20.10
2015,10,01,16,50,20.20
2015,10,01,16,51,20.20
2015,10,01,16,52,20.20
2015,10,01,16,53,20.20
2015,10,01,16,54,20.30
2015,10,01,16,55,20.30
2015,10,01,16,56,20.30
2015,10,01,16,57,20.30
2015,10,01,16,58,20.30
2015,10,01,16,59,20.30
2015,10,01,17,00,20.30
2015,10,01,17,01,20.20
2015,10,01,17,02,20.20
2015,10,01,17,03,20.20
2015,10,01,17,04,20.20
2015,10,01,17,05,20.10
2015,10,01,17,06,20.00
2015,10,01,17,07,19.90
2015,10,01,17,08,19.80
2015,10,01,17,09,19.80
2015,10,01,17,10,19.70
2015,10,01,17,11,19.60
2015,10,01,17,12,19.50
2015,10,01,17,13,19.40
2015,10,01,17,14,19.40
2015,10,01,17,15,19.30
2015,10,01,17,16,19.30
2015,10,01,17,17,19.20
2015,10,01,17,18,19.20
2015,10,01,17,19,19.10
2015,10,01,17,20,19.10
2015,10,01,17,21,19.10
2015,10,01,17,22,19.10
2015,10,01,17,23,19.00
2015,10,01,17,24,18.90
2015,10,01,17,25,18.90
2015,10,01,17,26,18.80
2015,10,01,17,27,18.70
2015,10,01,17,28,18.60
2015,10,01,17,29,18.60
2015,10,01,17,30,18.50
2015,10,01,17,31,18.40
2015,10,01,17,32,18.30
2015,10,01,17,33,18.20
2015,10,01,17,34,18.20
2015,10,01,17,35,18.10
2015,10,01,17,36,18.00
2015,10,01,17,37,17.90
2015,10,01,17,38,17.90
2015,10,01,17,39,17.80
2015,10,01,17,40,17.80
2015,10,01,17,41,17.80
2015,10,01,17,42,17.70